Zurück zum Katalog

SL-12 R/B(2)

AktivGEO
NORAD 22984·ROCKET BODY·🇷🇺 Russia

Gestartet Feb 5, 1994 von Baikonur Cosmodrome

Loading…

TLE

AktuellSource: Space-Track

Epoche: Aug 30, 2026, 23:12 UTC

1 22984U 94008D   26242.96687006 -.00000130  00000-0  00000+0 0  9998
2 22984  15.0862 350.6516 0023317  63.3449 294.7986  0.97966211116352

Verfolge SL-12 R/B(2) in Echtzeit mit AllMySat

Download on the App Store